This demonstration page uses our WeatherBlox Daily Observations layout. Learn more.

Left ArrowRight Arrow

Hourly Observations for April 20, 2015

Temp ( °F °C ) Dew Point ( °F °C ) Humidity (%) Winds ( mph kmh ) Pressure ( in mb ) Visibility ( mi km ) Precip ( " mm )
12:53 am 00:53 Clear 40 4.4 32 0 73 73 NW 12 19 29.90 1013 10 16 0.00 0.00
1:53 am 01:53 Clear 39 3.9 31 -0.6 73 73 NW 13 20 29.91 1013 10 16 0.00 0.00
2:53 am 02:53 Clear 38 3.3 31 -0.6 76 76 WNW 10 17 29.90 1013 10 16 0.00 0.00
3:53 am 03:53 Clear 37 2.8 30 -1.1 76 76 WNW 13 20 29.90 1013 10 16 0.00 0.00
4:53 am 04:53 Clear 37 2.8 30 -1.1 76 76 WNW 14 22 29.91 1013 10 16 0.00 0.00
5:53 am 05:53 Clear 36 2.2 29 -1.7 76 76 WNW 13 20 29.91 1013 10 16 0.00 0.00
6:53 am 06:53 Sunny 35 1.7 28 -2.2 76 76 W 12 19 29.93 1014 10 16 0.00 0.00
7:53 am 07:53 Sunny 38 3.3 29 -1.7 70 70 WNW 15 24 29.95 1014 10 16 0.00 0.00
8:53 am 08:53 Sunny 42 5.6 30 -1.1 62 62 NW 16 26 29.95 1014 10 16 0.00 0.00
9:53 am 09:53 Sunny 46 7.8 30 -1.1 54 54 NW 22 35 29.94 1014 10 16 0.00 0.00
10:53 am 10:53 Sunny 50 10 30 -1.1 46 46 NW 21 33 29.94 1014 10 16 0.00 0.00
11:53 am 11:53 Mostly Sunny 52 11.1 28 -2.2 40 40 NW 28 44 29.93 1014 10 16 0.00 0.00
12:53 pm 12:53 Mostly Sunny 54 12.2 26 -3.3 34 34 NW 28 44 29.91 1013 10 16 0.00 0.00
1:53 pm 13:53 Mostly Cloudy 55 12.8 25 -3.9 31 31 NNW 22 35 29.88 1012 10 16 0.00 0.00
2:53 pm 14:53 Mostly Cloudy 54 12.2 24 -4.4 31 31 NW 23 37 29.87 1012 10 16 0.00 0.00
3:53 pm 15:53 Mostly Cloudy 56 13.3 23 -5 28 28 WNW 21 33 29.85 1011 10 16 0.00 0.00
4:53 pm 16:53 Mostly Cloudy 58 14.4 27 -2.8 31 31 NW 23 37 29.84 1011 10 16 0.00 0.00
5:53 pm 17:53 Mostly Cloudy 56 13.3 25 -3.9 30 30 NW 21 33 29.85 1011 10 16 0.00 0.00
6:53 pm 18:53 Mostly Sunny 56 13.3 27 -2.8 33 33 NW 16 26 29.84 1011 10 16 0.00 0.00
7:53 pm 19:53 Sunny 50 10 31 -0.6 48 48 NW 8 13 29.85 1011 10 16 0.00 0.00
8:53 pm 20:53 Clear 46 7.8 30 -1.1 54 54 NNW 7 11 29.86 1011 10 16 0.00 0.00
9:53 pm 21:53 Clear 45 7.2 30 -1.1 56 56 W 6 9 29.87 1012 10 16 0.00 0.00
10:53 pm 22:53 Clear 42 5.6 29 -1.7 60 60 WSW 6 9 29.88 1012 10 16 0.00 0.00
11:53 pm 23:53 Clear 41 5 28 -2.2 60 60 WSW 6 9 29.87 1012 10 16 0.00 0.00

Powered by AerisWeather